Regional Weather Roundup
Issued by NWS

Home | Current Version | Previous Version | Text Only | Print | Product List | Glossary Off
Versions: 1 2 3 4 5 6 7 8 9 10 11 12 13 14 15 16 17 18 19 20 21 22 23 24 25 26 27 28 29 30 31 32 33 34 35 36 37 38 39 40 41 42 43 44 45 46 47 48 49 50

000
ASUS44 KMEG 011010
RWRTN
TENNESSEE HOURLY STATE WEATHER ROUNDUP
NATIONAL WEATHER SERVICE MEMPHIS TN
500 AM CDT WED OCT 01 2014

TNZ002-004-019-021-049-052-054-088>092-011100-
WEST TENNESSEE

CITY           SKY/WX    TMP DP  RH WIND       PRES   REMARKS
MEMPHIS INTL   PTCLDY    72  60  66 VRB3      29.90R
NWS MEMPHIS      N/A     64 N/A N/A MISG        N/A
JACKSON        FOG       58  56  93 CALM      29.92R VSB 1/2
DYERSBURG      CLEAR     61  52  72 CALM      29.92R
UNION CITY     CLEAR     55  55 100 CALM      29.91R
PARIS          CLEAR     55  54  94 CALM      29.92S
HUNTINGDON     CLEAR     58  57  96 CALM      29.92R
LEXINGTON      CLEAR     57  55  94 CALM      29.91S
SAVANNAH       CLEAR     57  57 100 CALM      29.93R
$$

TNZ008-025-027-028-033-062-065-066-011100-
NORTH MIDDLE TENNESSEE

CITY           SKY/WX    TMP DP  RH WIND       PRES   REMARKS
NASHVILLE      PTCLDY    58  54  86 CALM      29.94R
PORTLAND       CLEAR     55  54  94 CALM      29.94R
CLARKSVILLE    CLEAR     57  54  89 CALM      29.93R
LEBANON        CLEAR     53  51  93 CALM      29.93R
SMYRNA         CLEAR     54  53  96 CALM      29.95S
MURFREESBORO   CLEAR     57  53  86 CALM      29.94R
COOKEVILLE     CLEAR     48  48 100 CALM      29.96S
LIVINGSTON     PTCLDY    56  51  83 CALM      29.98R
GALLATIN       CLEAR     56  55  96 CALM      29.95R
CROSSVILLE     PTCLDY    55  49  80 CALM      30.00R
$$

TNZ061-075-076-078-094-096-097-011100-
SOUTH MIDDLE TENNESSEE

CITY           SKY/WX    TMP DP  RH WIND       PRES   REMARKS
LEWISBURG      CLEAR     53  52  97 CALM      29.94R
FAYETTEVILLE     N/A     57  57 100 E3        29.95S
TULLAHOMA      CLEAR     55  52  88 CALM      29.97R
WINCHESTER     CLEAR     55  54  94 CALM      29.96S
MCMINNVILLE    PTCLDY    52  52 100 CALM      29.96S
COLUMBIA       CLEAR    N/A N/A N/A CALM      29.93R
SHELBYVILLE    CLEAR     55  54  94 CALM      29.96R
$$

TNZ017-018-042-046-047-011100-
NORTHEAST TENNESSEE

CITY           SKY/WX    TMP DP  RH WIND       PRES   REMARKS
TRI CITIES     CLEAR     53  51  93 CALM      30.00R FOG
ELIZABETHTON   SUNNY     54  52  94 CALM      30.00R
$$

TNZ012-013-036-069-073-074-011100-
CENTRAL EAST TENNESSEE

CITY           SKY/WX    TMP DP  RH WIND       PRES   REMARKS
KNOXVILLE      PTCLDY    56  54  93 SW3       29.97R
OAK RIDGE      FOG       57  56  96 CALM      30.00R VSB 1/2
GATLINBURG     SUNNY     54  52  94 CALM      29.97R
MORRISTOWN     SUNNY     55  55 100 CALM      29.99R
$$

TNZ083-085-099-011100-
SOUTHEAST TENNESSEE

CITY           SKY/WX    TMP DP  RH WIND       PRES   REMARKS
CHATTANOOGA    PTCLDY    61  58  90 CALM      29.96S FOG
$$

SKY/WX REPORTED AS FAIR MEANS FEW OR NO CLOUDS BELOW
12 THOUSAND FEET.




USA.gov is the U.S. government's official web portal to all federal, state and local government web resources and services.